Location: Cudham
(51.3000°N, 0.0667°E)
Time: 17:41:57
(UTC+00:00)

USA 229 DEB - Pass Details

Date: 23 April 2026
Orbit: 844 x 1364 km, 63.4° (Epoch: 10 January)

Event Time Altitude Azimuth Distance (km) Brightness Sun altitude
Rises 22:21:43 0° 312° (NW) 3,880 7.8 -22.6°
Reaches altitude 10° 22:24:18 10° 316° (NW) 2,994 7.0 -22.8°
Maximum altitude 22:31:29 63° 38° (NE) 1,354 4.3 -23.2°
Enters shadow 22:36:15 26° 111° (ESE) 2,285 5.0 -23.5°
